| time (UTC) | temp F | wind direction | speed MPH | gust MPH | rain 1hr in | rain 24hr in | rain mn in | humidity % | barometer mb |
| 20260503054519 | 63 | 225 | 1.0 | 5.0 | 0.00 | 0.18 | 0.04 | 79 | 1026.6 |
| 20260503053519 | 63 | 203 | 2.0 | 6.0 | 0.00 | 0.18 | 0.04 | 78 | 1026.6 |
| 20260503052519 | 63 | 113 | 1.0 | 3.0 | 0.00 | 0.18 | 0.04 | 76 | 1026.6 |
| 20260503051519 | 64 | 0.0 | 2.0 | 0.00 | 0.18 | 0.04 | 77 | 1026.6 | |
| 20260503050519 | 63 | 180 | 1.0 | 3.0 | 0.00 | 0.18 | 0.04 | 78 | 1026.6 |
| 20260503045519 | 63 | 113 | 1.0 | 6.0 | 0.00 | 0.18 | 0.04 | 78 | 1026.7 |
| 20260503044519 | 63 | 0.0 | 2.0 | 0.00 | 0.18 | 0.04 | 78 | 1026.8 | |
| 20260503043539 | 63 | 225 | 1.0 | 4.0 | 0.00 | 0.18 | 0.04 | 79 | 1026.9 |
| 20260503042519 | 63 | 113 | 1.0 | 3.0 | 0.00 | 0.18 | 0.04 | 79 | 1027.1 |
| 20260503041519 | 63 | 90 | 1.0 | 5.0 | 0.00 | 0.18 | 0.04 | 79 | 1027.1 |
| 20260503040519 | 62 | 113 | 2.0 | 7.0 | 0.00 | 0.18 | 0.04 | 80 | 1027.2 |
| 20260503035539 | 63 | 113 | 1.0 | 5.0 | 0.00 | 0.18 | 0.04 | 81 | 1027.2 |
| 20260503034519 | 62 | 135 | 1.0 | 5.0 | 0.00 | 0.19 | 0.04 | 84 | 1027.3 |
| 20260503033519 | 62 | 90 | 1.0 | 5.0 | 0.00 | 0.20 | 0.04 | 87 | 1027.4 |
| 20260503032539 | 61 | 113 | 2.0 | 5.0 | 0.00 | 0.21 | 0.04 | 86 | 1027.4 |
| 20260503031518 | 62 | 113 | 2.0 | 5.0 | 0.00 | 0.21 | 0.04 | 85 | 1027.4 |
| 20260503030519 | 61 | 113 | 1.0 | 5.0 | 0.00 | 0.21 | 0.04 | 88 | 1027.3 |
| 20260503025518 | 61 | 113 | 1.0 | 3.0 | 0.00 | 0.23 | 0.04 | 89 | 1027.5 |
| 20260503024519 | 60 | 113 | 1.0 | 3.0 | 0.00 | 0.23 | 0.04 | 91 | 1027.5 |
| 20260503023518 | 60 | 135 | 1.0 | 2.0 | 0.00 | 0.23 | 0.04 | 92 | 1027.6 |
| 20260503022518 | 59 | 135 | 2.0 | 7.0 | 0.00 | 0.23 | 0.04 | 96 | 1027.6 |
| 20260503021518 | 58 | 113 | 1.0 | 3.0 | 0.00 | 0.23 | 0.04 | 95 | 1027.6 |
| 20260503020518 | 58 | 113 | 2.0 | 8.0 | 0.00 | 0.24 | 0.04 | 95 | 1027.6 |
| 20260503015519 | 58 | 180 | 1.0 | 3.0 | 0.00 | 0.24 | 0.04 | 96 | 1027.5 |
| 20260503014518 | 57 | 0.0 | 2.0 | 0.00 | 0.24 | 0.04 | 95 | 1027.5 | |
| 20260503013518 | 57 | 113 | 1.0 | 5.0 | 0.00 | 0.24 | 0.04 | 96 | 1027.6 |
| 20260503012518 | 58 | 0.0 | 3.0 | 0.00 | 0.24 | 0.04 | 96 | 1027.6 | |
| 20260503011519 | 57 | 0.0 | 2.0 | 0.00 | 0.24 | 0.04 | 96 | 1027.5 | |
| 20260503010538 | 58 | 90 | 1.0 | 3.0 | 0.00 | 0.25 | 0.04 | 96 | 1027.5 |
| 20260503005518 | 58 | 0.0 | 2.0 | 0.00 | 0.26 | 0.04 | 96 | 1027.3 | |
| 20260503004518 | 57 | 0.0 | 4.0 | 0.00 | 0.26 | 0.04 | 96 | 1027.2 | |
| 20260503003519 | 57 | 0.0 | 1.0 | 0.00 | 0.26 | 0.04 | 97 | 1027.0 | |
| 20260503002518 | 57 | 0.0 | 1.0 | 0.01 | 0.30 | 0.04 | 96 | 1026.9 | |
| 20260503001538 | 57 | 0.0 | 1.0 | 0.02 | 0.30 | 0.04 | 96 | 1026.9 | |
| 20260503000518 | 56 | 0.0 | 1.0 | 0.02 | 0.30 | 0.04 | 96 | 1026.9 | |
| 20260502235518 | 56 | 0.0 | 1.0 | 0.02 | 0.30 | 0.04 | 96 | 1026.8 | |
| 20260502234518 | 56 | 113 | 1.0 | 6.0 | 0.02 | 0.30 | 0.04 | 96 | 1026.8 |
| 20260502233539 | 56 | 0.0 | 1.0 | 0.02 | 0.30 | 0.04 | 96 | 1026.5 | |
| 20260502232518 | 56 | 0.0 | 0.0 | 0.01 | 0.29 | 0.03 | 96 | 1026.6 | |
| 20260502231520 | 56 | 0.0 | 2.0 | 0.00 | 0.28 | 0.02 | 96 | 1026.4 | |
| 20260502230538 | 56 | 0.0 | 1.0 | 0.00 | 0.28 | 0.02 | 96 | 1026.5 | |
| 20260502225518 | 56 | 0.0 | 1.0 | 0.00 | 0.28 | 0.02 | 96 | 1026.4 | |
| 20260502224518 | 56 | 0.0 | 1.0 | 0.00 | 0.28 | 0.02 | 96 | 1026.1 | |
| 20260502223518 | 55 | 0.0 | 1.0 | 0.00 | 0.28 | 0.02 | 96 | 1026.1 | |
| 20260502222518 | 55 | 0.0 | 1.0 | 0.00 | 0.28 | 0.02 | 96 | 1025.9 | |
| 20260502221518 | 55 | 0.0 | 2.0 | 0.00 | 0.28 | 0.02 | 96 | 1025.9 | |
| 20260502220518 | 55 | 0.0 | 1.0 | 0.00 | 0.28 | 0.02 | 96 | 1025.8 | |
| 20260502215518 | 55 | 0.0 | 1.0 | 0.00 | 0.28 | 0.02 | 96 | 1025.7 | |
| 20260502214518 | 55 | 0.0 | 1.0 | 0.00 | 0.28 | 0.02 | 96 | 1025.7 | |
| 20260502213519 | 55 | 0.0 | 2.0 | 0.00 | 0.28 | 0.02 | 96 | 1025.6 | |
| 20260502212518 | 55 | 0.0 | 1.0 | 0.00 | 0.28 | 0.02 | 96 | 1025.5 | |
| 20260502211518 | 55 | 158 | 1.0 | 3.0 | 0.00 | 0.28 | 0.02 | 96 | 1025.5 |
| 20260502210518 | 55 | 0.0 | 5.0 | 0.00 | 0.28 | 0.02 | 96 | 1025.6 | |
| 20260502205518 | 55 | 0.0 | 3.0 | 0.00 | 0.30 | 0.02 | 96 | 1025.3 | |
| 20260502204538 | 55 | 135 | 1.0 | 4.0 | 0.00 | 0.30 | 0.02 | 96 | 1025.4 |
| 20260502203518 | 55 | 90 | 1.0 | 3.0 | 0.00 | 0.30 | 0.02 | 96 | 1025.4 |
| 20260502202518 | 55 | 0.0 | 1.0 | 0.00 | 0.30 | 0.02 | 96 | 1025.2 | |
| 20260502201518 | 55 | 0.0 | 3.0 | 0.01 | 0.30 | 0.02 | 96 | 1025.1 | |
| 20260502200518 | 55 | 203 | 1.0 | 4.0 | 0.01 | 0.30 | 0.02 | 96 | 1025.0 |
| 20260502195518 | 55 | 0.0 | 1.0 | 0.01 | 0.30 | 0.02 | 96 | 1025.2 | |
| 20260502194517 | 55 | 0.0 | 2.0 | 0.01 | 0.30 | 0.02 | 96 | 1025.0 | |
| 20260502193518 | 55 | 0.0 | 2.0 | 0.01 | 0.30 | 0.02 | 96 | 1024.9 | |
| 20260502192518 | 55 | 135 | 2.0 | 6.0 | 0.01 | 0.30 | 0.02 | 96 | 1025.1 |
| 20260502191518 | 55 | 0.0 | 1.0 | 0.00 | 0.29 | 0.02 | 96 | 1024.9 | |
| 20260502190517 | 55 | 0.0 | 1.0 | 0.00 | 0.29 | 0.02 | 96 | 1025.0 | |
| 20260502185517 | 55 | 0.0 | 0.0 | 0.01 | 0.29 | 0.02 | 96 | 1024.9 | |
| 20260502184517 | 55 | 0.0 | 1.0 | 0.01 | 0.29 | 0.02 | 96 | 1024.9 | |
| 20260502183518 | 55 | 0.0 | 6.0 | 0.01 | 0.29 | 0.02 | 96 | 1024.9 | |
| 20260502182517 | 55 | 0.0 | 1.0 | 0.01 | 0.30 | 0.02 | 96 | 1025.1 | |
| 20260502181517 | 55 | 0.0 | 1.0 | 0.01 | 0.30 | 0.02 | 96 | 1024.8 | |
| 20260502180517 | 55 | 0.0 | 1.0 | 0.01 | 0.30 | 0.02 | 96 | 1025.0 | |
| 20260502170517 | 55 | 0.0 | 0.0 | 0.01 | 0.29 | 0.01 | 96 | 1024.8 | |
| 20260502163558 | 55 | 0.0 | 1.0 | 0.01 | 0.29 | 0.01 | 96 | 1024.7 | |
| 20260502162517 | 55 | 0.0 | 2.0 | 0.01 | 0.29 | 0.01 | 96 | 1024.6 | |
| 20260502161517 | 55 | 113 | 1.0 | 4.0 | 0.02 | 0.29 | 0.01 | 96 | 1024.6 |
| 20260502160517 | 55 | 0.0 | 1.0 | 0.02 | 0.28 | 0.00 | 96 | 1024.6 | |
| 20260502152018 | 55 | 0.0 | 2.0 | 0.02 | 0.28 | 0.28 | 96 | 1024.6 | |
| 20260502151018 | 55 | 0.0 | 0.0 | 0.01 | 0.27 | 0.27 | 96 | 1024.6 | |
| 20260502123017 | 56 | 0.0 | 5.0 | 0.03 | 0.25 | 0.25 | 95 | 1024.4 | |
| 20260502122017 | 56 | 0.0 | 2.0 | 0.04 | 0.25 | 0.25 | 95 | 1024.4 | |
| 20260502121037 | 56 | 113 | 1.0 | 4.0 | 0.05 | 0.25 | 0.25 | 95 | 1024.3 |
| 20260502115017 | 56 | 225 | 1.0 | 4.0 | 0.06 | 0.24 | 0.24 | 94 | 1024.3 |
| 20260502114017 | 56 | 0.0 | 2.0 | 0.04 | 0.22 | 0.22 | 94 | 1024.2 | |
| 20260502113017 | 56 | 135 | 2.0 | 5.0 | 0.05 | 0.24 | 0.22 | 94 | 1024.2 |
| 20260502112017 | 56 | 0.0 | 2.0 | 0.05 | 0.24 | 0.21 | 94 | 1024.3 | |
| 20260502111017 | 56 | 0.0 | 2.0 | 0.05 | 0.23 | 0.20 | 93 | 1024.2 | |
| 20260502110037 | 57 | 225 | 1.0 | 5.0 | 0.05 | 0.23 | 0.20 | 92 | 1024.1 |
| 20260502105018 | 57 | 203 | 1.0 | 4.0 | 0.02 | 0.20 | 0.18 | 90 | 1024.0 |
| 20260502104019 | 57 | 225 | 2.0 | 6.0 | 0.02 | 0.21 | 0.18 | 90 | 1024.0 |
| 20260502103019 | 57 | 225 | 2.0 | 5.0 | 0.02 | 0.20 | 0.17 | 88 | 1023.9 |
| 20260502102017 | 58 | 225 | 2.0 | 7.0 | 0.01 | 0.20 | 0.17 | 84 | 1024.0 |
| 20260502101019 | 58 | 248 | 2.0 | 8.0 | 0.00 | 0.19 | 0.16 | 84 | 1023.6 |
| 20260502091019 | 58 | 225 | 2.0 | 6.0 | 0.00 | 0.19 | 0.16 | 82 | 1023.3 |
| 20260502071019 | 59 | 225 | 6.0 | 14.0 | 0.00 | 0.17 | 0.14 | 82 | 1023.7 |
| 20260502070018 | 58 | 203 | 2.0 | 6.0 | 0.00 | 0.17 | 0.14 | 82 | 1023.4 |